FW2916 Weather Reports


Display with metric or nautical units.
time (UTC)temp
F
wind
direction
speed
MPH
gust
MPH
rain 1hr
in
rain 24hr
in
rain mn
in
humidity
%
barometer
mb
20260904051552 77 0 0.0 0.0 0.00 0.02 0.00 77 1012.4
20260904050051 77 0 0.0 0.0 0.00 0.02 0.00 78 1012.3
20260904044548 77 0 0.0 0.0 0.00 0.02 0.02 80 1012.3
20260904043042 77 0 0.0 0.0 0.00 0.02 0.02 79 1012.2
20260904041542 78 0 0.0 0.0 0.00 0.02 0.02 78 1012.1
20260904040054 78 0 0.0 0.0 0.00 0.02 0.02 78 1012.1
20260904034548 79 0 0.0 0.0 0.00 0.02 0.02 77 1012.1
20260904033042 79 0 0.0 0.0 0.00 0.02 0.02 77 1012.2
20260904031542 79 0 0.0 0.0 0.00 0.02 0.02 76 1012.2
20260904030048 79 0 0.0 0.0 0.00 0.02 0.02 75 1012.2
20260904024544 80 0 0.0 0.0 0.00 0.02 0.02 74 1012.2
20260904023044 81 0 0.0 0.0 0.00 0.02 0.02 71 1012.2
20260904021550 82 0 0.0 0.0 0.00 0.02 0.02 70 1012.0
20260904020041 83 0 0.0 0.0 0.00 0.02 0.02 68 1011.7
20260904014553 84 0 0.0 0.0 0.00 0.02 0.02 66 1011.5
20260904013041 86 0 0.0 0.0 0.00 0.02 0.02 65 1011.3
20260904011557 87 0 0.0 0.0 0.00 0.02 0.02 63 1011.2
20260904010040 88 0 0.0 0.0 0.00 0.02 0.02 61 1011.0
20260904004548 90 0 0.0 0.0 0.00 0.02 0.02 59 1011.0
20260904003042 91 0 0.0 4.0 0.00 0.02 0.02 57 1010.9
20260904001541 92 0 0.0 3.0 0.00 0.02 0.02 55 1010.9
20260904000051 93 0 0.0 3.0 0.00 0.02 0.02 52 1011.0
20260903234550 95 215 0.0 5.0 0.00 0.02 0.02 51 1011.0
20260903233043 96 257 0.0 4.0 0.00 0.02 0.02 48 1011.0
20260903231554 97 0 1.0 9.0 0.00 0.02 0.02 48 1010.8
20260903230043 98 310 1.0 8.0 0.00 0.02 0.02 47 1010.7
20260903224547 99 208 1.0 4.0 0.00 0.02 0.02 46 1010.9
20260903223050 99 136 1.0 6.0 0.00 0.02 0.02 46 1010.9
20260903221552 99 134 2.0 7.0 0.00 0.02 0.02 45 1011.2
20260903214548 100 221 1.0 7.0 0.00 0.02 0.02 45 1011.3
20260903213047 99 234 0.0 6.0 0.00 0.02 0.02 45 1011.5
20260903211543 99 233 1.0 7.0 0.00 0.02 0.02 46 1011.5
20260903210049 99 241 1.0 9.0 0.00 0.02 0.02 47 1011.6
20260903204549 98 246 2.0 7.0 0.02 0.02 0.02 47 1011.8
20260903203041 97 0 1.0 6.0 0.02 0.02 0.02 50 1011.9
20260903201552 98 183 3.0 11.0 0.02 0.02 0.02 49 1012.1
20260903200043 98 160 2.0 7.0 0.02 0.02 0.02 50 1012.1
20260903194549 98 203 2.0 8.0 0.00 0.00 0.00 49 1012.2
20260903193051 97 223 2.0 11.0 0.00 0.00 0.00 50 1012.3
20260903191545 97 135 1.0 10.0 0.00 0.00 0.00 53 1012.3
20260903190047 97 224 2.0 8.0 0.00 0.00 0.00 50 1012.5
20260903184541 96 131 2.0 10.0 0.00 0.00 0.00 51 1012.8
20260903183048 96 70 2.0 7.0 0.00 0.00 0.00 51 1013.0
20260903181542 96 184 3.0 7.0 0.00 0.00 0.00 51 1013.1
20260903180043 95 274 3.0 11.0 0.00 0.00 0.00 53 1013.3
20260903174554 95 189 3.0 9.0 0.00 0.00 0.00 52 1013.5
20260903173049 94 209 1.0 8.0 0.00 0.00 0.00 54 1013.8
20260903171548 93 205 3.0 10.0 0.00 0.00 0.00 56 1013.8
20260903170041 93 252 3.0 7.0 0.00 0.00 0.00 56 1013.9
20260903164541 93 201 2.0 8.0 0.00 0.00 0.00 58 1014.1
20260903163052 92 53 3.0 10.0 0.00 0.00 0.00 59 1014.1
20260903161547 92 131 2.0 9.0 0.00 0.00 0.00 59 1014.2
20260903160042 91 143 1.0 8.0 0.00 0.00 0.00 61 1014.3
20260903154553 90 136 3.0 9.0 0.00 0.00 0.00 62 1014.3
20260903153048 89 179 3.0 7.0 0.00 0.00 0.00 63 1014.2
20260903151547 88 209 3.0 7.0 0.00 0.00 0.00 64 1014.3
20260903150053 88 198 3.0 8.0 0.00 0.00 0.00 65 1014.3
20260903144544 87 283 3.0 11.0 0.00 0.00 0.00 66 1014.5
20260903143101 86 311 2.0 10.0 0.00 0.00 0.00 67 1014.5
20260903141548 86 193 1.0 8.0 0.00 0.00 0.00 69 1014.6
20260903140045 84 211 1.0 6.0 0.00 0.00 0.00 71 1014.5
20260903134549 83 202 2.0 8.0 0.00 0.00 0.00 73 1014.5
20260903133052 82 212 0.0 4.0 0.00 0.00 0.00 75 1014.5
20260903131552 80 0 0.0 3.0 0.00 0.00 0.00 77 1014.4
20260903130044 77 0 0.0 4.0 0.00 0.00 0.00 81 1014.4
20260903124540 76 0 0.0 0.0 0.00 0.00 0.00 83 1014.3
20260903123041 75 0 0.0 0.0 0.00 0.00 0.00 83 1014.3
20260903121546 75 146 0.0 0.0 0.00 0.00 0.00 82 1014.1
20260903120043 75 0 0.0 0.0 0.00 0.00 0.00 81 1014.0
20260903114554 76 0 0.0 2.0 0.00 0.00 0.00 80 1013.9
20260903113047 76 0 0.0 0.0 0.00 0.00 0.00 79 1013.7
20260903111546 77 212 0.0 2.0 0.00 0.00 0.00 78 1013.7
20260903110043 77 214 0.0 2.0 0.00 0.00 0.00 77 1013.6
20260903104546 78 0 0.0 1.0 0.00 0.00 0.00 76 1013.5
20260903103049 79 0 0.0 2.0 0.00 0.00 0.00 75 1013.4
20260903101543 80 0 0.0 6.0 0.00 0.00 0.00 73 1013.4
20260903100042 80 0 1.0 5.0 0.00 0.00 0.00 73 1013.2
20260903094605 80 167 1.0 8.0 0.00 0.00 0.00 72 1013.1
20260903093055 79 140 1.0 5.0 0.00 0.00 0.00 73 1013.1
20260903091543 79 219 1.0 4.0 0.00 0.00 0.00 74 1013.3
20260903090043 78 203 0.0 0.0 0.00 0.00 0.00 76 1013.3
20260903084544 77 0 0.0 0.0 0.00 0.00 0.00 76 1013.3
20260903083050 77 0 0.0 0.0 0.00 0.00 0.00 77 1013.2
20260903081550 77 0 0.0 0.0 0.00 0.00 0.00 78 1013.3
20260903080045 77 0 0.0 0.0 0.00 0.00 0.00 78 1013.2
20260903074542 75 0 0.0 0.0 0.00 0.00 0.00 80 1013.1
20260903073055 76 0 0.0 0.0 0.00 0.00 0.00 79 1013.0
20260903071544 77 0 0.0 0.0 0.00 0.00 0.00 78 1013.1
20260903070042 77 0 0.0 0.0 0.00 0.00 0.00 77 1013.2
20260903064553 77 0 0.0 0.0 0.00 0.00 0.00 77 1013.2
20260903063049 76 0 0.0 0.0 0.00 0.00 0.00 78 1013.3
20260903061542 77 0 0.0 0.0 0.00 0.00 0.00 77 1013.3
20260903060053 77 0 0.0 0.0 0.00 0.00 0.00 78 1013.2
20260903054549 78 0 0.0 0.0 0.00 0.00 0.00 76 1013.3
20260903053048 79 0 0.0 0.0 0.00 0.00 0.00 74 1013.1